Regional Weather Roundup
Issued by NWS

Home | Current Version | Previous Version | Graphics & Text | Print | Product List | Glossary On
Versions: 1 2 3 4 5 6 7 8 9 10 11 12 13 14 15 16 17 18 19 20 21 22 23 24 25 26 27 28 29 30 31 32 33 34 35 36 37 38 39 40 41 42 43 44 45 46 47 48 49 50
336
ASUS45 KBOI 230510
RWRID

IDAHO REGIONAL WEATHER ROUNDUP
NATIONAL WEATHER SERVICE BOISE ID
1000 PM MST THU FEB 22 2018

NOTE: "FAIR" INDICATES FEW OR NO CLOUDS BELOW 12000 FEET
WITH NO SIGNIFICANT WEATHER AND/OR OBSTRUCTIONS TO VISIBILITY

IDZ012-014-230600-
SOUTHWEST IDAHO


CITY           SKY/WX    TMP DP  RH WIND       PRES   REMARKS
BOISE          PTCLDY    20  12  71 CALM      30.09R
CALDWELL       PTCLDY    24  16  71 W9        30.13R WCI  14
MOUNTAIN HOME  MOCLDY    22  22 100 NW6       30.07R WCI  15
$$

IDZ016-017-230600-
SOUTHCENTRAL IDAHO


CITY           SKY/WX    TMP DP  RH WIND       PRES   REMARKS
BURLEY         MOCLDY    16  13  88 S6        30.00S WCI   7
JEROME         CLEAR     20  13  74 S8        30.02R WCI  10
TWIN FALLS     CLOUDY    17  14  88 S7        30.02R WCI   8
$$

IDZ019>023-230600-
SOUTHEAST IDAHO


CITY           SKY/WX    TMP DP  RH WIND       PRES   REMARKS
IDAHO FALLS    MOCLDY    24  17  74 S12       29.97R WCI  13
POCATELLO      FLURRIES  22  18  85 SW14      30.00R WCI   9
REXBURG        CLOUDY    24  16  71 S9        29.96R WCI  14
$$

IDZ006-010-011-018-031-032-230600-
CENTRAL IDAHO MOUNTAINS


CITY           SKY/WX    TMP DP  RH WIND       PRES   REMARKS
MCCALL         PTCLDY     9   5  84 CALM      29.97R
HAILEY         PTCLDY     9   7  92 NW6       29.95R WCI  -1
STANLEY          N/A      0  -3  87 S5        29.90R WCI -10
SALMON         CLOUDY    25  20  81 NE6       29.96R WCI  18
CHALLIS        PTCLDY    19   8  62 W6        29.91R WCI  11
$$

IDZ002-004-006-007-026-230600-
NORTHERN IDAHO


CITY           SKY/WX    TMP DP  RH WIND       PRES   REMARKS
LEWISTON       CLOUDY    27  16  63 W8        30.29R WCI  19
LOWELL           N/A     26  22  84 CALM      30.27R
COEUR D`ALENE  CLOUDY    23  12  62 N5        30.20R WCI  17
MULLAN PASS    CLOUDY     6   4  91 N3        29.95R
$$




USA.gov is the U.S. government's official web portal to all federal, state and local government web resources and services.